Location: Unspecified
(41.1850°N, 73.2650°W)
Time: 22:54:09
(UTC+00:00)

SL-08 R/B - Visible Passes

Search period start: 14 March 2026 00:00
Search period end: 24 March 2026 00:00
Orbit: 944 x 993 km, 83.0° (Epoch: 14 March)

Date Brightness Start Highest point End Pass type
(mag) Time Alt. Az. Time Alt. Az. Time Alt. Az.
14 Mar 5.7 02:03:44 32° N 02:03:44 32° N 02:06:50 10° N visible
14 Mar 7.1 03:48:11 12° NW 03:48:11 12° NW 03:49:25 10° NW visible
15 Mar 5.9 00:41:38 18° NE 00:41:38 18° NE 00:43:56 10° NE visible
15 Mar 5.6 02:26:05 37° NNW 02:26:05 37° NNW 02:30:03 10° N visible
16 Mar 5.1 01:03:51 35° ENE 01:03:51 35° ENE 01:08:01 10° NNE visible
16 Mar 6.1 02:48:17 29° WNW 02:48:17 29° WNW 02:52:56 10° NNW visible
17 Mar 4.3 01:25:49 71° ENE 01:25:49 71° ENE 01:31:40 10° NNE visible
17 Mar 6.7 03:10:14 16° W 03:11:27 17° WNW 03:15:16 10° NNW visible
18 Mar 5.7 00:03:03 16° E 00:04:24 17° E 00:08:12 10° NE visible
18 Mar 4.7 01:47:26 49° SW 01:48:57 66° W 01:55:02 10° N visible
19 Mar 5.1 00:23:58 18° SE 00:27:23 31° E 00:32:37 10° NNE visible
19 Mar 5.7 02:08:16 17° SW 02:12:27 38° WNW 02:18:05 10° N visible
20 Mar 4.5 00:44:37 10° SSE 00:50:31 54° E 00:56:27 10° NNE visible
20 Mar 6.5 02:31:32 10° WSW 02:36:07 22° WNW 02:40:45 10° NNW visible
20 Mar 6.0 23:27:00 10° ESE 23:29:30 13° E 23:32:01 10° NE visible
21 Mar 4.4 01:07:42 10° S 01:13:49 86° W 01:19:57 10° N visible
21 Mar 7.2 02:57:34 10° W 02:59:59 12° WNW 03:02:24 10° NW visible
21 Mar 7.8 10:20:54 10° NE 10:22:33 11° ENE 10:24:12 10° E visible
21 Mar 5.4 23:47:46 10° SE 23:52:26 24° E 23:57:05 10° NE visible
22 Mar 5.2 01:31:22 10° SSW 01:37:15 49° WNW 01:43:08 10° N visible
23 Mar 4.8 00:09:51 10° SSE 00:15:29 41° E 00:21:09 10° NNE visible
23 Mar 6.2 01:55:40 10° SW 02:00:50 28° WNW 02:06:01 10° NNW visible
